User: anonymous   Login
Location: Maccacari
(45.1333°N, 11.1333°E)
Time: 17:51:01
(UTC+00:00)
Language:

SR - Orbit

View from above orbital plane
View from above orbital plane
View from above satellite
View from above satellite

Ground track
Ground track

The orbit data is extracted from the following two-line orbital elements,

1 00046U 60007B   21128.76150785  .00000017  00000-0  26311-4 0  9991
2 00046  66.6904 247.4611 0217159 249.4328 108.3363 14.49394844186251
Epoch (UTC): 08 May 2021 18:16:34
Eccentricity: 0.0217159
inclination: 66.6904°
perigee height: 573 km
apogee height: 882 km
right ascension of ascending node: 247.4611°
argument of perigee: 249.4328°
revolutions per day: 14.49394844
mean anomaly at epoch: 108.3363°
orbit number at epoch: 18625

The dashed part of the orbit path shows where the satellite is in the earth's shadow,  

DLR